Location: Unspecified
(0.0000°N, 0.0000°E)
Time: 05:23:59
(UTC+00:00)

Safir 2 - Pass Details

Date: 17 May 2026
Orbit: 804 x 808 km, 99.0° (Epoch: 11 June)

Event Time Altitude Azimuth Distance (km) Brightness Sun altitude
Rises 05:05:04 0° 354° (N) 3,301 11.5 -12.1°
Reaches altitude 10° 05:07:37 10° 344° (NNW) 2,373 10.6 -11.5°
Maximum altitude 05:12:13 31° 283° (WNW) 1,364 8.9 -10.4°
Drops below altitude 10° 05:16:50 10° 221° (SW) 2,382 10.0 -9.3°
Enters shadow 05:18:02 - 216° (SW) 2,804 10.4 -9.1°
